Location: B?dargowo
(53.3916°N, 14.4413°E)
Time: 03:36:06
(UTC+00:00)

Cosmos 1869 - Pass Details

Date: 05 February 2023
Orbit: 510 x 550 km, 82.5° (Epoch: 24 March)

Event Time Altitude Azimuth Distance (km) Brightness Sun altitude
Rises 16:58:54 0° 352° (N) 2,665 6.8 -10.1°
Reaches altitude 10° 17:01:06 10° 359° (N) 1,779 5.8 -10.5°
Maximum altitude 17:04:53 47° 74° (ENE) 718 3.5 -11.0°
Drops below altitude 10° 17:08:41 10° 149° (SSE) 1,791 5.7 -11.6°
Sets 17:10:54 0° 155° (SSE) 2,685 6.7 -11.9°
